Regional Weather Roundup
Issued by NWS

Home | Current Version | Previous Version | Text Only | Print | Product List | Glossary On
Versions: 1 2 3 4 5 6 7 8 9 10 11 12 13 14 15 16 17 18 19 20 21 22 23 24 25 26 27 28 29 30 31 32 33 34 35 36 37 38 39 40 41 42 43 44 45 46 47 48 49 50
000
ASPQ40 PGUM 220212
RWRPQ
WEATHER ROUNDUP FOR THE MARIANAS AND MICRONESIA
NATIONAL WEATHER SERVICE TIYAN GU
1200 PM CHST SUN JAN 22 2017

GUZ001>004-220300-
MARIANA ISLANDS-

CITY           SKY/WX    TMP DP  RH WIND       PRES   REMARKS
GUAM AIRPORT   PTSUNNY   86  75  70 NE17G24   30.00F HX  95
ANDERSEN AFB   PTSUNNY   81  73  78 NE22G28   30.01F
ROTA AIRPORT   PTSUNNY   81  72  74 NE20      30.01F
TINIAN AP      MOSUNNY   84  75  74 NE21      30.00F HX  92
SAIPAN AP      MOSUNNY   84  72  65 NE20G28   30.01F

$$

PMZ161-220300-
REPUBLIC OF PALAU-

CITY           SKY/WX    TMP DP  RH WIND       PRES   REMARKS
KOROR AP       CLOUDY    84  77  79 NE17G23   29.90F HX  94
KOROR WSO      CLOUDY    84  79  84 E9        29.92F HX  96

$$

PMZ171>174-220300-
FEDERATED STATES OF MICRONESIA-

CITY           SKY/WX    TMP DP  RH WIND       PRES   REMARKS
YAP AIRPORT    LGT RAIN  82  79  89 NE14G25   29.91F HX  93
CHUUK AP       CLOUDY    84  81  89 NE14      29.83F HX  98
POHNPEI AP     NOT AVBL
POHNPEI WSO    CLOUDY    84  75  74 NE10      29.86F HX  92
KOSRAE AP      NOT AVBL

$$

PMZ181-220300-
REPUBLIC OF THE MARSHALL ISLANDS-

CITY           SKY/WX    TMP DP  RH WIND       PRES   REMARKS
KWAJALEIN AP   MOSUNNY   86  75  70 E20       29.84F HX  95
MAJURO AP      NOT AVBL
MAJURO WSO     CLOUDY    88  77  70 NE10      29.79F HX 100

$$




USA.gov is the U.S. government's official web portal to all federal, state and local government web resources and services.